Meath Environmental Platform

Observations for Trim Market St

Time AQI Temp °C Hum % Pres Pa CO μg/m³ H₂S μg/m³ NO μg/m³ NO₂ μg/m³ O₃ μg/m³ SO₂ μg/m³ PM1 μg/m³ PM2.5 μg/m³ PM10 μg/m³
Monday 17 August 2026
19:25 2 20.4 72 9,034 0 12.63 1.15 28.14 71.01 0 1.43 3.92 6.92
19:24 2 20.5 72 12,003 0 12.77 1.11 21.22 73.03 0 1.43 3.93 6.3
19:17 2 20.8 70 25,513 0.08 15.35 1.41 36.41 62.41 0 1.43 4.49 6.91
19:16 2 20.9 70 27,717 0 13.88 1.38 36.29 63.77 0 2.14 4.02 6.28
19:15 2 20.9 70 29,826 0 14.93 1.17 33.6 68.49 0 1.43 3.55 5.65
19:14 2 21 70 31,846 0 15.96 1.1 38.45 70.31 0 2.14 3.56 5.64
19:13 2 21.1 69 33,750 0 13.51 1.07 32.8 69.66 0 2.85 5.04 7.53
19:12 2 21.1 69 35,384 0 12.2 1.09 16.89 77 0 1.43 3.59 5.63
19:11 2 21.2 69 36,879 0 14.68 1.08 49.21 62.44 0 2.14 4.09 6.9
19:10 2 21.3 68 38,840 0 12.51 1.06 29.86 68.63 0 1.43 3.13 6.26
19:09 2 21.3 68 40,652 0 15.13 1.07 37.83 64.87 0 2.14 4.12 6.89
19:08 2 21.4 68 42,715 0 15.39 1.06 30.19 74.34 0 1.43 2.67 4.33
19:07 2 21.4 68 44,720 0 14.55 1.06 33.44 72.84 0 2.85 4.15 6.25
19:06 2 21.5 67 46,689 0 13.7 1.05 19.28 73.9 0 2.14 3.68 5.6
19:05 2 21.6 67 48,667 0 17.37 1.05 32.96 80.58 0 2.14 4.19 6.24
19:04 2 21.6 66 50,776 0 12.7 1.06 22.13 75.49 0 2.85 4.7 7.53
18:59 2 22 64 55,239 0 16.3 1.06 27.03 79.64 0 1.43 3.82 5.55
18:58 2 22.2 64 55,731 0.68 18.33 1.05 37.55 71.75 0 13.54 15.22 20.8
18:53 2 22.7 62 57,005 0 11.91 1.02 22.47 77.42 0 0.71 2.45 3.47
18:50 2 23 60 57,265 0 10 1.07 22.07 78.99 0 1.43 3.02 4.1